Find Thaicom 3

NORAD ID: 24768 Int'l Des: 1997-016 Owner: SHINW Country: T operational
HEOCIRCULAR

Current View

Loading 3D Globe...

About Thaicom 3

Description loading...

Upcoming Passes

Passes for default location (London). Set your location on the main map for personalized predictions.

Altitude History

Loading altitude history...

Two-Line Element Set

1 24768U 97016A 26150.56025025 -.00000106 00000-0 00000-0 0 9997
2 24768 12.9928 25.3103 0090981 49.4236 304.0217 0.98752048105768
Epoch: May 30, 2026 • Age: 16 hours

Current Status

Altitude 36606.2 km
Velocity 3.03 km/s
Sub-Earth Point -10.89°S, 75.57°W
Launch Date Apr 16, 1997
Age 29.1 years
Type other

Technical Details

Classification Payload
Mass 2650.00 kg
Dry Mass 1179.00 kg
Total Mass 2650.00 kg
Length 7.30 m
Diameter 2.30 m
Span 26.30 m
Shape Box + 2 Pan
Manufacturer AESPC
Bus Type Spacebus 3000
Phase Status In Orbit
Owner/State SHINW/T

Most Searched